DW8623 Weather Reports


time (UTC)temp
C
wind
direction
speed
KPH
gust
KPH
rain 1hr
cm
rain 24hr
cm
rain mn
cm
humidity
%
barometer
mb
20260505093054 14 209 6.4 17.7 0.00 0.00 0.00 68 1010.9
20260505092550 14 229 8.0 16.1 0.00 0.00 0.00 69 1010.8
20260505092046 14 184 6.4 19.3 0.00 0.00 0.00 69 1010.8
20260505091612 14 214 9.7 19.3 0.00 0.00 0.00 69 1010.8
20260505091045 14 200 6.4 14.5 0.00 0.00 0.00 69 1010.9
20260505090546 14 182 3.2 11.3 0.00 0.00 0.00 69 1010.8
20260505090100 14 175 6.4 14.5 0.00 0.00 0.00 69 1010.9
20260505085546 14 183 6.4 16.1 0.00 0.00 0.00 69 1010.7
20260505085047 14 209 6.4 16.1 0.00 0.00 0.00 69 1010.8
20260505084553 14 180 4.8 17.7 0.00 0.00 0.00 69 1010.8
20260505084047 14 178 6.4 17.7 0.00 0.00 0.00 69 1010.9
20260505083548 14 195 8.0 14.5 0.00 0.00 0.00 69 1010.9
20260505083052 14 189 6.4 14.5 0.00 0.00 0.00 69 1010.9
20260505082548 14 200 4.8 12.9 0.00 0.00 0.00 69 1010.9
20260505082047 15 209 4.8 12.9 0.00 0.00 0.00 69 1011.1
20260505081554 15 188 4.8 11.3 0.00 0.00 0.00 68 1010.9
20260505081049 15 192 4.8 12.9 0.00 0.00 0.00 68 1010.9
20260505080546 15 209 4.8 12.9 0.00 0.00 0.00 68 1010.9
20260505080052 15 186 4.8 12.9 0.00 0.00 0.00 68 1010.9
20260505075548 15 200 4.8 12.9 0.00 0.00 0.00 68 1010.8
20260505075046 15 184 4.8 12.9 0.00 0.00 0.00 68 1010.8
20260505074556 15 195 6.4 12.9 0.00 0.00 0.00 68 1010.8
20260505074048 15 195 4.8 8.0 0.00 0.00 0.00 68 1010.7
20260505073545 15 211 3.2 9.7 0.00 0.00 0.00 67 1010.6
20260505073058 15 209 3.2 9.7 0.00 0.00 0.00 67 1010.6
20260505072547 15 188 4.8 11.3 0.00 0.00 0.00 67 1010.5
20260505072049 15 211 4.8 11.3 0.00 0.00 0.00 67 1010.5
20260505071551 15 188 3.2 8.0 0.00 0.00 0.00 67 1010.5
20260505071045 15 217 3.2 8.0 0.00 0.00 0.00 67 1010.5
20260505070545 15 209 3.2 8.0 0.00 0.00 0.00 67 1010.6
20260505070051 15 184 4.8 8.0 0.00 0.00 0.00 66 1010.5
20260505065548 15 195 3.2 8.0 0.00 0.00 0.00 66 1010.6
20260505065046 15 200 4.8 8.0 0.00 0.00 0.00 66 1010.6
20260505064607 15 209 3.2 8.0 0.00 0.00 0.00 66 1010.6
20260505064046 15 195 4.8 11.3 0.00 0.00 0.00 65 1010.6
20260505063546 15 188 3.2 11.3 0.00 0.00 0.00 65 1010.7
20260505063054 15 195 3.2 11.3 0.00 0.00 0.00 65 1010.8
20260505062546 16 190 4.8 11.3 0.00 0.00 0.00 64 1010.8
20260505062045 16 209 3.2 6.4 0.00 0.00 0.00 63 1010.8
20260505061554 16 195 3.2 6.4 0.00 0.00 0.00 63 1010.7
20260505061046 16 209 3.2 8.0 0.00 0.00 0.00 62 1010.7
20260505060548 16 222 4.8 11.3 0.00 0.00 0.00 62 1010.8
20260505060058 16 205 3.2 11.3 0.00 0.00 0.00 62 1010.7
20260505055545 16 240 4.8 12.9 0.00 0.00 0.00 61 1010.8
20260505055046 16 239 4.8 17.7 0.00 0.00 0.00 61 1010.8
20260505054620 16 220 8.0 17.7 0.00 0.00 0.00 61 1010.8
20260505054045 17 220 9.7 22.5 0.00 0.00 0.00 60 1010.7
20260505053545 17 210 8.0 22.5 0.00 0.00 0.00 60 1010.9
20260505053058 17 217 9.7 22.5 0.00 0.00 0.00 60 1010.9
20260505052551 17 176 8.0 24.1 0.00 0.00 0.00 60 1010.9
20260505052047 17 180 12.9 24.1 0.00 0.00 0.00 60 1010.8
20260505051640 17 184 11.3 17.7 0.00 0.00 0.00 60 1010.7
20260505050545 17 232 9.7 20.9 0.00 0.00 0.00 59 1010.8
20260505041601 17 213 6.4 14.5 0.00 0.00 0.00 57 1010.4
20260505041048 17 188 6.4 14.5 0.00 0.00 0.00 57 1010.5
20260505040547 17 213 6.4 17.7 0.00 0.00 0.00 56 1010.6
20260505040104 17 189 6.4 17.7 0.00 0.00 0.00 56 1010.4
20260505035547 17 195 8.0 17.7 0.00 0.00 0.00 56 1010.5
20260505035045 17 228 8.0 17.7 0.00 0.00 0.00 56 1010.5
20260505034549 17 205 8.0 16.1 0.00 0.00 0.00 56 1010.4
20260505034046 17 213 6.4 16.1 0.00 0.00 0.00 56 1010.5
20260505033546 17 221 6.4 16.1 0.00 0.00 0.00 56 1010.5
20260505033050 17 205 6.4 14.5 0.00 0.00 0.00 55 1010.5
20260505032546 17 223 4.8 14.5 0.00 0.00 0.00 55 1010.5
20260505032049 17 200 6.4 14.5 0.00 0.00 0.00 55 1010.6
20260505031553 17 200 6.4 14.5 0.00 0.00 0.00 55 1010.6
20260505031045 17 186 6.4 14.5 0.00 0.00 0.00 55 1010.6
20260505030547 17 215 4.8 12.9 0.00 0.00 0.00 55 1010.6
20260505025546 17 182 4.8 12.9 0.00 0.00 0.00 55 1010.6
20260505025047 17 200 4.8 12.9 0.00 0.00 0.00 55 1010.6
20260505024551 17 209 4.8 8.0 0.00 0.00 0.00 54 1010.7
20260505024048 17 244 3.2 9.7 0.00 0.00 0.00 54 1010.7
20260505023547 17 161 4.8 9.7 0.00 0.00 0.00 54 1010.8
20260505023050 17 189 3.2 8.0 0.00 0.00 0.00 53 1010.7
20260505022548 17 187 3.2 8.0 0.00 0.00 0.00 53 1010.7
20260505022047 17 182 3.2 6.4 0.00 0.00 0.00 53 1010.7
20260505021555 17 195 3.2 6.4 0.00 0.00 0.00 52 1010.7
20260505021047 17 195 3.2 6.4 0.00 0.00 0.00 52 1010.7
20260505020545 17 186 1.6 4.8 0.00 0.00 0.00 51 1010.6
20260505020106 17 0 0.0 3.2 0.00 0.00 0.00 50 1010.6
20260505015546 18 0 0.0 4.8 0.00 0.00 0.00 50 1010.6
20260505015049 18 0 1.6 4.8 0.00 0.00 0.00 50 1010.6
20260505014554 18 190 0.0 4.8 0.00 0.00 0.00 49 1010.6
20260505014048 18 0 1.6 4.8 0.00 0.00 0.00 49 1010.6
20260505013551 18 200 1.6 4.8 0.00 0.00 0.00 49 1010.5
20260505013059 18 195 1.6 8.0 0.00 0.00 0.00 48 1010.3
20260505012548 18 181 3.2 8.0 0.00 0.00 0.00 48 1010.2
20260505012048 18 173 3.2 6.4 0.00 0.00 0.00 47 1010.1
20260505011600 18 184 3.2 6.4 0.00 0.00 0.00 47 1010.1
20260505011048 19 181 3.2 8.0 0.00 0.00 0.00 47 1010.0
20260505010548 19 187 3.2 8.0 0.00 0.00 0.00 46 1010.0
20260505010111 19 169 4.8 11.3 0.00 0.00 0.00 46 1009.9
20260505005548 19 174 4.8 11.3 0.00 0.00 0.00 46 1009.8
20260505005048 19 195 4.8 9.7 0.00 0.00 0.00 45 1009.8
20260505004557 20 179 3.2 14.5 0.00 0.00 0.00 45 1009.8
20260505004045 20 174 4.8 14.5 0.00 0.00 0.00 45 1009.7
20260505003546 20 189 4.8 12.9 0.00 0.00 0.00 45 1009.8
20260505003111 20 165 4.8 16.1 0.00 0.00 0.00 44 1009.7
20260505002548 20 173 6.4 16.1 0.00 0.00 0.00 44 1009.7
20260505002046 20 171 6.4 16.1 0.00 0.00 0.00 43 1009.5
20260505001555 20 182 6.4 16.1 0.00 0.00 0.00 43 1009.6
20260505001051 20 175 6.4 16.1 0.00 0.00 0.00 43 1009.7
20260505000548 20 171 6.4 16.1 0.00 0.00 0.00 42 1009.7
20260505000101 21 186 8.0 20.9 0.00 0.00 0.00 42 1009.5
20260504235552 21 205 9.7 24.1 0.00 0.00 0.00 41 1009.5
20260504235048 21 191 12.9 24.1 0.00 0.00 0.00 41 1009.5
20260504234552 21 153 6.4 20.9 0.00 0.00 0.00 41 1009.5
20260504234048 21 165 11.3 20.9 0.00 0.00 0.00 41 1009.4
20260504233550 21 160 6.4 25.7 0.00 0.00 0.00 41 1009.3
20260504233057 21 161 16.1 27.4 0.00 0.00 0.00 39 1009.3
20260504232548 21 177 17.7 27.4 0.00 0.00 0.00 39 1009.3
20260504232047 22 226 14.5 24.1 0.00 0.00 0.00 38 1009.3
20260504231554 22 168 14.5 24.1 0.00 0.00 0.00 38 1009.3
20260504231045 22 171 8.0 14.5 0.00 0.00 0.00 39 1009.4
20260504230545 22 176 6.4 22.5 0.00 0.00 0.00 38 1009.4
20260504230114 22 214 9.7 22.5 0.00 0.00 0.00 37 1009.4
20260504225550 22 224 12.9 22.5 0.00 0.00 0.00 36 1009.4
20260504225051 22 178 12.9 22.5 0.00 0.00 0.00 36 1009.4
20260504224626 22 191 8.0 22.5 0.00 0.00 0.00 37 1009.5
20260504224048 22 179 9.7 24.1 0.00 0.00 0.00 39 1009.4
20260504223548 22 165 8.0 24.1 0.00 0.00 0.00 37 1009.3
20260504223054 22 151 12.9 24.1 0.00 0.00 0.00 37 1009.3
20260504222548 22 137 12.9 24.1 0.00 0.00 0.00 38 1009.4
20260504222048 22 200 12.9 24.1 0.00 0.00 0.00 36 1009.4
20260504221556 22 179 9.7 29.0 0.00 0.00 0.00 38 1009.4
20260504221048 22 200 14.5 29.0 0.00 0.00 0.00 38 1009.4
20260504220548 22 189 8.0 27.4 0.00 0.00 0.00 36 1009.5
20260504220104 22 191 9.7 27.4 0.00 0.00 0.00 36 1009.4
20260504215545 23 195 16.1 27.4 0.00 0.00 0.00 36 1009.4
20260504215049 23 211 12.9 27.4 0.00 0.00 0.00 35 1009.4
20260504214555 23 150 16.1 27.4 0.00 0.00 0.00 36 1009.4
20260504214048 22 150 16.1 25.7 0.00 0.00 0.00 35 1009.4
20260504213547 22 189 12.9 25.7 0.00 0.00 0.00 35 1009.5
20260504213102 23 200 12.9 32.2 0.00 0.00 0.00 37 1009.5
20260504212548 23 181 16.1 32.2 0.00 0.00 0.00 35 1009.5
20260504212048 23 200 11.3 27.4 0.00 0.00 0.00 36 1009.4
20260504211600 23 191 16.1 27.4 0.00 0.00 0.00 36 1009.4
20260504211050 23 171 14.5 27.4 0.00 0.00 0.00 38 1009.5
20260504210550 23 165 14.5 24.1 0.00 0.00 0.00 37 1009.5
20260504205550 23 228 9.7 24.1 0.00 0.00 0.00 36 1009.5
20260504205047 23 230 9.7 24.1 0.00 0.00 0.00 36 1009.6
20260504204605 23 181 16.1 24.1 0.00 0.00 0.00 38 1009.5
20260504204048 23 121 9.7 24.1 0.00 0.00 0.00 36 1009.5
20260504203548 23 224 14.5 24.1 0.00 0.00 0.00 39 1009.6
20260504203056 23 263 11.3 20.9 0.00 0.00 0.00 39 1009.7
20260504202548 23 153 12.9 24.1 0.00 0.00 0.00 38 1009.8
20260504202046 23 205 9.7 24.1 0.00 0.00 0.00 38 1009.9
20260504201610 22 163 14.5 25.7 0.00 0.00 0.00 37 1010.0
20260504201047 22 245 12.9 27.4 0.00 0.00 0.00 37 1010.0
20260504200547 22 285 12.9 27.4 0.00 0.00 0.00 38 1010.1
20260504200104 22 225 9.7 22.5 0.00 0.00 0.00 39 1010.2
20260504195548 22 195 4.8 22.5 0.00 0.00 0.00 40 1010.2
20260504195046 22 227 12.9 29.0 0.00 0.00 0.00 36 1010.1
20260504194558 22 285 9.7 29.0 0.00 0.00 0.00 37 1010.3
20260504194049 22 260 8.0 20.9 0.00 0.00 0.00 41 1010.4
20260504193545 22 253 11.3 20.9 0.00 0.00 0.00 37 1010.4
20260504193050 22 259 9.7 30.6 0.00 0.00 0.00 39 1010.6
20260504192548 22 68 14.5 30.6 0.00 0.00 0.00 37 1010.6
20260504192048 22 149 11.3 40.2 0.00 0.00 0.00 41 1010.7
20260504191607 22 259 19.3 40.2 0.00 0.00 0.00 36 1010.8
20260504191048 22 190 11.3 30.6 0.00 0.00 0.00 40 1010.9
20260504190549 22 159 6.4 30.6 0.00 0.00 0.00 38 1011.1
20260504190049 22 221 12.9 25.7 0.00 0.00 0.00 38 1011.2
20260504185544 21 215 9.7 24.1 0.00 0.00 0.00 39 1011.3
20260504185048 22 205 9.7 25.7 0.00 0.00 0.00 39 1011.4
20260504184553 21 244 14.5 29.0 0.00 0.00 0.00 39 1011.6
20260504184047 21 215 19.3 29.0 0.00 0.00 0.00 37 1011.5
20260504183547 21 191 16.1 29.0 0.00 0.00 0.00 37 1011.7
20260504183053 22 280 11.3 27.4 0.00 0.00 0.00 38 1011.7
20260504182547 21 209 9.7 22.5 0.00 0.00 0.00 38 1011.8
20260504182047 21 205 8.0 22.5 0.00 0.00 0.00 39 1011.8
20260504181553 21 221 6.4 25.7 0.00 0.00 0.00 36 1011.9
20260504181048 21 258 12.9 25.7 0.00 0.00 0.00 39 1012.0
20260504180549 21 180 11.3 25.7 0.00 0.00 0.00 38 1012.1
20260504180051 21 219 14.5 25.7 0.00 0.00 0.00 36 1012.2
20260504175548 21 186 11.3 22.5 0.00 0.00 0.00 43 1012.1
20260504175048 21 142 11.3 25.7 0.00 0.00 0.00 38 1012.2
20260504174556 21 178 16.1 25.7 0.00 0.00 0.00 39 1012.3
20260504174047 21 205 14.5 25.7 0.00 0.00 0.00 39 1012.3
20260504173547 21 187 9.7 19.3 0.00 0.00 0.00 37 1012.3
20260504173052 21 307 9.7 19.3 0.00 0.00 0.00 37 1012.3
20260504172548 21 249 11.3 22.5 0.00 0.00 0.00 37 1012.3
20260504172048 21 264 11.3 29.0 0.00 0.00 0.00 38 1012.4
20260504171552 20 179 14.5 29.0 0.00 0.00 0.00 37 1012.4
20260504171048 21 177 16.1 29.0 0.00 0.00 0.00 39 1012.5
20260504170547 20 217 11.3 20.9 0.00 0.00 0.00 39 1012.5
20260504151047 18 195 8.0 22.5 0.00 0.00 0.00 41 1014.0
20260504150550 18 227 8.0 22.5 0.00 0.00 0.00 42 1014.0
20260504141045 16 249 9.7 22.5 0.00 0.00 0.00 48 1014.1
20260504140547 16 182 12.9 22.5 0.00 0.00 0.00 45 1014.1
20260504130548 13 200 4.8 16.1 0.00 0.00 0.00 55 1014.3
20260504120119 10 232 3.2 16.1 0.00 0.00 0.00 67 1014.6
20260504110548 7 200 3.2 6.4 0.00 0.00 0.00 76 1014.5
20260504100545 6 0 0.0 3.2 0.00 0.00 0.00 72 1014.6